STARLINK-37627, 69315

Orbit data source: Space-Track

STARLINK-37627, 69315 is a payload satellite owned by SpaceX/Seattle (US) in SSO that was launched on Sat, 30 May 2026 UTC via an FALCON 9 launch vehicle from the Air Force Western Test Range (AFWTR). Payload-class satellites include a variety of spacecraft equipped with specific instruments for various scientific and technological missions. These include communications satellites like Starlink; space stations such as the ISS; scientific satellites like the Hubble; Earth observation satellites from companies like Planet Labs, Umbra, and HawkEye 360; GPS; miniature CubeSats for education and research; and military/defense satellites.

Loading next visibility...
Identifier
69315, 2026-119V
Orbit
SSO
Country
Flag of USUS
Related business
Manufacturer
SpaceX/Seattle
Mission
Operational spacecraft
Bus & Motor
STARLINK V2MO, Unknown motor
Mass
575 kg wet, ~530 kg dry
Launch date (UTC)
2026-05-30 (2 months ago)
Launch vehicle
FALCON 9
Launch site
Air Force Western Test Range (AFWTR)
Object type
Payload
Rocket body
Debris
Shape & HBR
Unknown shape, 17.7 m
Radar Cross Section
Large (>1 m²)

Expand to show TLE details & history
Last TLE update: 15 hours ago

TLE from 15 hours ago
0 STARLINK-37627
1 69315U 26119V   26202.07360363  .00011388  00000-0  35447-3 0  9990
2 69315  97.2848 227.7454 0001287 113.1688 246.9691 15.33452155  9258
Epoch: 2026-07-21T01:45Z
TLE epoch observation values (Epoch: 2026-07-21T01:45:59.353Z)
Latitude
0.00002°
Longitude
-97.60043°
Altitude
468.979 km
Speed
7.632 km/s
True Right ascension
15h 10m 58s
True Declination
0° 00' 00"
Sunlit
Object was in daylight at epoch
Visualization orbit readout
Latitude
Unknown
Longitude
Unknown
Altitude
Unknown
Speed
Unknown
Apparent Right ascension
Unknown
Apparent Declination
Unknown
Sunlit
N/A
Visualization observer readout
Local Sidereal Time
05:28:36
Azimuth
Unknown
Elevation
Unknown
Doppler factor
Unknown
Orbital elements
Apogee altitude
463.345 km
Perigee altitude
461.584 km
Semi-major axis
6,840.602 km
Eccentricity
0.00013
Inclination
97.2848°
RAAN
227.7454°
Arg. of periapsis
113.1688°
True anomaly
246.95553°
Mean anomaly
246.9691°
Eccentric anomaly
246.96231°
Mean motion
3.8362 °/min
Orbital period
93.84 mins
BSTAR
0.00035447
Loading maneuver chart data...
Computing Atmospheric mass density...
Loading historical data...
Loading historical data...
Loading historical data...
Loading historical data...
Loading historical data...
Loading historical data...
Loading historical data...

Documentation

Showing up to 5 results
|